Change the Weather History Date:

Tuesday, January 29, 2013

  Actual Average Record
Temperature  
Mean Temperature 35 °F -  
Max Temperature 37 °F 34 °F 56 °F (1971)
Min Temperature 30 °F 11 °F -22 °F (1966)
Degree Days  
Heating Degree Days 30    
Moisture  
Dew Point 31 °F    
Average Humidity 85    
Maximum Humidity 100    
Minimum Humidity 76    
Precipitation  
Precipitation 0.00 in - - ()
Sea Level Pressure  
Sea Level Pressure 29.66 in    
Wind  
Wind Speed 14 mph (NNW)    
Max Wind Speed 30 mph    
Max Gust Speed 37 mph    
Visibility 5 miles    
Events      
Averages and records for this station are not official NWS values.
T = Trace of Precipitation, MM = Missing Value Source: NWS Daily Summary

Daily Weather History Graph

Daily Weather History Graph

Search for Another Location

Airport or City:

Trip Planner

Search our weather history database for the weather conditions in past years. The results will help you decide how hot, cold, wet, or windy it might be!

Date:

Astronomy

Jan. 29, 2013 Rise Set
Actual Time 7:39 AM CST 5:36 PM CST
Civil Twilight 7:09 AM CST 6:06 PM CST
Nautical Twilight 6:36 AM CST 6:39 PM CST
Astronomical Twilight 6:03 AM CST 7:12 PM CST
Moon 8:37 PM CST 8:34 AM CST
Length of Visible Light 10h 56m
Length of Day
9h 57m
Waning Gibbous, 93% of the Moon is Illuminated
Jan 29
Waning Gibbous
Feb 3
Last Quarter
Feb 10
New
Feb 17
First Quarter
Feb 25
Full

Hourly Weather History & Observations

Time (CST) Temp. Windchill Dew Point Humidity Pressure Visibility Wind Dir Wind Speed Gust Speed Precip Events Conditions
12:46 AM 37.4 °F 29.8 °F 37.4 °F 100% 29.59 in 1.8 mi NW 11.5 mph - N/A   Overcast
12:54 AM 37.9 °F 30.0 °F 36.0 °F 93% 29.61 in 2.0 mi NW 12.7 mph - N/A   Overcast
1:28 AM 37.4 °F 27.5 °F 35.6 °F 93% 29.61 in 4.0 mi NW 18.4 mph 25.3 mph N/A   Overcast
1:50 AM 35.6 °F 24.8 °F 33.8 °F 93% 29.62 in 5.0 mi NW 19.6 mph - N/A   Overcast
1:54 AM 36.0 °F 25.6 °F 34.0 °F 93% 29.63 in 6.0 mi NW 18.4 mph - N/A   Overcast
2:30 AM 35.6 °F 27.5 °F 33.8 °F 93% 29.63 in 6.0 mi NNW 11.5 mph - N/A   Overcast
2:38 AM 35.6 °F 27.1 °F 32.0 °F 87% 29.62 in 6.0 mi NNW 12.7 mph - N/A   Overcast
2:54 AM 34.0 °F 28.0 °F 32.0 °F 92% 29.65 in 5.0 mi NW 6.9 mph - N/A   Mostly Cloudy
3:51 AM 33.8 °F 23.5 °F 30.2 °F 87% 29.61 in 4.0 mi NW 16.1 mph - N/A   Overcast
3:54 AM 34.0 °F 24.2 °F 30.9 °F 89% 29.62 in 4.0 mi NW 15.0 mph - N/A   Overcast
4:20 AM 33.8 °F 24.3 °F 30.2 °F 87% 29.62 in 3.0 mi NW 13.8 mph - N/A   Overcast
4:34 AM 33.8 °F 27.0 °F 30.2 °F 87% 29.63 in 2.5 mi NNW 8.1 mph - N/A   Overcast
5:09 AM 33.8 °F 24.8 °F 30.2 °F 87% 29.64 in 3.0 mi NW 12.7 mph - N/A   Overcast
5:36 AM 33.8 °F 27.0 °F 30.2 °F 87% 29.65 in 2.5 mi NW 8.1 mph - N/A   Overcast
5:54 AM 34.0 °F 26.0 °F 30.9 °F 89% 29.66 in 3.0 mi NW 10.4 mph - N/A   Overcast
6:54 AM 34.0 °F 25.5 °F 30.9 °F 89% 29.68 in 3.0 mi NW 11.5 mph - N/A   Overcast
7:54 AM 33.1 °F 24.9 °F 30.0 °F 89% 29.69 in 4.0 mi NW 10.4 mph - N/A   Overcast
8:54 AM 33.1 °F 24.4 °F 30.0 °F 89% 29.70 in 4.0 mi NNW 11.5 mph - N/A   Overcast
9:54 AM 34.0 °F 25.5 °F 28.9 °F 82% 29.70 in 5.0 mi North 11.5 mph - N/A   Haze
10:49 AM 33.8 °F 23.5 °F 30.2 °F 87% 29.69 in 2.5 mi North 16.1 mph - N/A   Overcast
10:54 AM 34.0 °F 23.4 °F 30.0 °F 85% 29.70 in 2.0 mi North 17.3 mph - N/A   Overcast
11:18 AM 33.8 °F 22.5 °F 28.4 °F 81% 29.69 in 1.8 mi North 19.6 mph - N/A   Overcast
11:28 AM 33.8 °F 23.9 °F 30.2 °F 87% 29.70 in 2.0 mi NNW 15.0 mph - N/A   Overcast
11:40 AM 33.8 °F 23.2 °F 28.4 °F 81% 29.69 in 1.5 mi NNW 17.3 mph - N/A   Overcast
11:54 AM 34.0 °F 24.2 °F 28.9 °F 82% 29.69 in 2.5 mi North 15.0 mph - N/A   Haze
12:45 PM 35.6 °F 25.9 °F 30.2 °F 81% 29.67 in 3.0 mi North 16.1 mph - N/A   Haze
12:54 PM 35.1 °F 25.9 °F 30.0 °F 82% 29.68 in 4.0 mi North 13.8 mph - N/A   Haze
1:54 PM 35.1 °F 24.5 °F 30.0 °F 82% 29.65 in 4.0 mi North 18.4 mph - N/A   Haze
2:28 PM 35.6 °F 25.5 °F 30.2 °F 81% 29.65 in 5.0 mi North 17.3 mph - N/A   Haze
2:54 PM 37.0 °F 26.7 °F 30.9 °F 79% 29.65 in 7.0 mi North 19.6 mph - N/A   Overcast
3:54 PM 37.0 °F 27.4 °F 30.9 °F 79% 29.66 in 9.0 mi North 17.3 mph - N/A   Overcast
4:54 PM 36.0 °F 27.1 °F 30.9 °F 82% 29.66 in 10.0 mi North 13.8 mph - N/A   Mostly Cloudy
5:30 PM 35.6 °F 27.1 °F 30.2 °F 81% 29.65 in 10.0 mi North 12.7 mph - N/A   Mostly Cloudy
5:54 PM 35.1 °F 26.9 °F 30.9 °F 85% 29.68 in 10.0 mi North 11.5 mph - N/A   Scattered Clouds
6:54 PM 35.1 °F 25.2 °F 30.0 °F 82% 29.67 in 7.0 mi North 16.1 mph - N/A   Overcast
7:54 PM 35.1 °F 25.5 °F 28.9 °F 78% 29.69 in 7.0 mi North 15.0 mph - N/A   Overcast
8:54 PM 35.1 °F 25.9 °F 28.0 °F 76% 29.72 in 7.0 mi North 13.8 mph - N/A   Overcast
9:54 PM 34.0 °F 22.4 °F 28.0 °F 79% 29.68 in 6.0 mi North 20.7 mph - N/A   Haze
10:54 PM 33.1 °F 19.8 °F 27.0 °F 78% 29.68 in 5.0 mi North 26.5 mph 32.2 mph N/A   Haze
11:54 PM 30.9 °F 16.2 °F 26.1 °F 82% 29.70 in 6.0 mi North 29.9 mph 36.8 mph N/A   Haze